• In United Kingdom
  • List of Countries
  • For 7 days
  • Water Temperature
  • Satellite Maps
  • Weather Map
  • Weather Widgets
  • user-avatar
    Login

    Hourly Weather Buenos Aires

    Today, 17 January, Wednesday

    Time Temperature Precipitation Wind Pressure Humidity
    00:00 +25°C° 0 mm 4 mps 760 mmHg 70%
    01:00 +25°C° 0 mm 4 mps 760 mmHg 72%
    02:00 +25°C° 0 mm 4 mps 759 mmHg 73%
    03:00 +25°C° 0.2 mm 3 mps 759 mmHg 74%
    04:00 +25°C° 0.2 mm 3 mps 759 mmHg 75%
    05:00 +24°C° 0.2 mm 3 mps 759 mmHg 76%
    06:00 +25°C° 1.1 mm 3 mps 759 mmHg 77%
    07:00 +25°C° 1.1 mm 2 mps 760 mmHg 79%
    08:00 +25°C° 1.1 mm 2 mps 760 mmHg 81%
    09:00 +26°C° 0.2 mm 2 mps 760 mmHg 75%
    10:00 +27°C° 0.2 mm 2 mps 760 mmHg 70%
    11:00 +28°C° 0.2 mm 1 mps 759 mmHg 65%
    12:00 +28°C° 0 mm 1 mps 759 mmHg 60%
    13:00 +29°C° 0 mm 1 mps 759 mmHg 55%
    14:00 +30°C° 0 mm 1 mps 758 mmHg 50%
    15:00 +30°C° 0 mm 2 mps 758 mmHg 50%
    16:00 +30°C° 0 mm 2 mps 757 mmHg 50%
    17:00 +30°C° 0 mm 2 mps 757 mmHg 49%
    18:00 +28°C° 0 mm 2 mps 757 mmHg 54%
    19:00 +27°C° 0 mm 2 mps 758 mmHg 58%
    20:00 +26°C° 0 mm 2 mps 758 mmHg 62%
    21:00 +26°C° 0.1 mm 2 mps 758 mmHg 65%
    22:00 +25°C° 0.1 mm 2 mps 759 mmHg 68%
    23:00 +25°C° 0.1 mm 2 mps 759 mmHg 71%

    Tomorrow, 18 January, Thursday

    Time Temperature Precipitation Wind Pressure Humidity
    00:00 +24°C° 0 mm 2 mps 759 mmHg 73%
    01:00 +24°C° 0 mm 2 mps 758 mmHg 76%
    02:00 +24°C° 0 mm 1 mps 758 mmHg 78%
    03:00 +23°C° 0.1 mm 1 mps 758 mmHg 79%
    04:00 +23°C° 0.1 mm 1 mps 758 mmHg 80%
    05:00 +23°C° 0.1 mm 1 mps 758 mmHg 81%
    06:00 +25°C° 0 mm 1 mps 759 mmHg 73%
    07:00 +27°C° 0 mm 1 mps 759 mmHg 65%
    08:00 +29°C° 0 mm 2 mps 759 mmHg 56%
    09:00 +31°C° 0 mm 2 mps 759 mmHg 48%
    10:00 +34°C° 0 mm 2 mps 759 mmHg 40%
    11:00 +36°C° 0 mm 2 mps 758 mmHg 32%
    12:00 +37°C° 0 mm 2 mps 758 mmHg 29%
    13:00 +38°C° 0 mm 2 mps 757 mmHg 27%
    14:00 +39°C° 0 mm 2 mps 757 mmHg 24%
    15:00 +38°C° 0 mm 2 mps 757 mmHg 26%
    16:00 +37°C° 0 mm 3 mps 756 mmHg 29%
    17:00 +35°C° 0 mm 3 mps 756 mmHg 31%
    18:00 +34°C° 0 mm 3 mps 757 mmHg 35%
    19:00 +33°C° 0 mm 3 mps 757 mmHg 40%
    20:00 +30°C° 0 mm 4 mps 757 mmHg 45%
    21:00 +30°C° 0 mm 4 mps 758 mmHg 46%
    22:00 +29°C° 0 mm 4 mps 758 mmHg 46%
    23:00 +29°C° 0 mm 4 mps 758 mmHg 47%

    Day after tomorrow, 19 January, Friday

    Time Temperature Precipitation Wind Pressure Humidity
    00:00 +28°C° 0 mm 4 mps 758 mmHg 49%
    01:00 +27°C° 0 mm 4 mps 758 mmHg 51%
    02:00 +27°C° 0 mm 3 mps 758 mmHg 53%
    03:00 +26°C° 0 mm 3 mps 758 mmHg 56%
    04:00 +26°C° 0 mm 3 mps 758 mmHg 58%
    05:00 +26°C° 0 mm 2 mps 759 mmHg 60%
    06:00 +27°C° 0 mm 2 mps 759 mmHg 55%
    07:00 +29°C° 0 mm 3 mps 759 mmHg 50%
    08:00 +31°C° 0 mm 3 mps 760 mmHg 45%
    09:00 +34°C° 0 mm 3 mps 760 mmHg 39%
    10:00 +36°C° 0 mm 3 mps 759 mmHg 33%
    11:00 +38°C° 0 mm 3 mps 759 mmHg 27%
    12:00 +39°C° 0 mm 3 mps 758 mmHg 25%
    13:00 +39°C° 0 mm 2 mps 758 mmHg 23%
    14:00 +39°C° 0 mm 2 mps 757 mmHg 22%
    15:00 +39°C° 0 mm 2 mps 757 mmHg 22%
    16:00 +39°C° 0 mm 2 mps 756 mmHg 22%
    17:00 +38°C° 0 mm 3 mps 756 mmHg 22%
    18:00 +37°C° 0 mm 3 mps 756 mmHg 25%
    19:00 +35°C° 0 mm 3 mps 756 mmHg 27%
    20:00 +34°C° 0 mm 3 mps 757 mmHg 30%
    21:00 +33°C° 0 mm 3 mps 757 mmHg 32%
    22:00 +33°C° 0 mm 4 mps 757 mmHg 34%
    23:00 +32°C° 0 mm 4 mps 757 mmHg 35%

    20 January, Saturday

    Time Temperature Precipitation Wind Pressure Humidity
    00:00 +30°C° 0 mm 4 mps 757 mmHg 36%
    01:00 +30°C° 0 mm 4 mps 757 mmHg 37%
    02:00 +29°C° 0 mm 4 mps 757 mmHg 38%
    03:00 +28°C° 0.1 mm 4 mps 757 mmHg 41%
    04:00 +27°C° 0.1 mm 3 mps 757 mmHg 43%
    05:00 +27°C° 0.1 mm 3 mps 757 mmHg 46%
    06:00 +28°C° 0.2 mm 3 mps 758 mmHg 43%
    07:00 +29°C° 0.2 mm 3 mps 758 mmHg 41%
    08:00 +31°C° 0.2 mm 2 mps 758 mmHg 39%
    09:00 +33°C° 0 mm 3 mps 758 mmHg 35%
    10:00 +35°C° 0 mm 3 mps 758 mmHg 31%
    11:00 +37°C° 0 mm 3 mps 758 mmHg 27%
    12:00 +38°C° 0 mm 3 mps 757 mmHg 25%
    13:00 +39°C° 0 mm 3 mps 756 mmHg 23%
    14:00 +40°C° 0 mm 3 mps 756 mmHg 21%
    15:00 +40°C° 0 mm 3 mps 755 mmHg 21%
    16:00 +39°C° 0 mm 3 mps 755 mmHg 21%
    17:00 +39°C° 0 mm 3 mps 755 mmHg 21%
    18:00 +37°C° 0 mm 3 mps 755 mmHg 25%
    19:00 +36°C° 0 mm 3 mps 755 mmHg 28%
    20:00 +34°C° 0 mm 3 mps 755 mmHg 32%
    21:00 +33°C° 0 mm 3 mps 756 mmHg 33%
    22:00 +33°C° 0 mm 4 mps 756 mmHg 35%
    23:00 +32°C° 0 mm 4 mps 756 mmHg 36%

    21 January, Sunday

    Time Temperature Precipitation Wind Pressure Humidity
    00:00 +32°C° 0 mm 4 mps 755 mmHg 36%
    01:00 +32°C° 0 mm 4 mps 755 mmHg 37%
    02:00 +30°C° 0 mm 5 mps 755 mmHg 37%
    03:00 +30°C° 0 mm 5 mps 755 mmHg 38%
    04:00 +29°C° 0 mm 4 mps 756 mmHg 40%
    05:00 +29°C° 0 mm 4 mps 756 mmHg 42%
    06:00 +30°C° 0 mm 4 mps 756 mmHg 40%
    07:00 +32°C° 0 mm 4 mps 756 mmHg 37%
    08:00 +33°C° 0 mm 4 mps 756 mmHg 35%
    09:00 +34°C° 0 mm 4 mps 756 mmHg 32%
    10:00 +36°C° 0 mm 3 mps 755 mmHg 28%
    11:00 +37°C° 0 mm 3 mps 755 mmHg 25%
    12:00 +38°C° 0 mm 3 mps 754 mmHg 24%
    13:00 +38°C° 0 mm 3 mps 754 mmHg 23%
    14:00 +40°C° 0 mm 4 mps 753 mmHg 22%
    15:00 +38°C° 0 mm 4 mps 753 mmHg 22%
    16:00 +39°C° 0 mm 5 mps 753 mmHg 22%
    17:00 +37°C° 0 mm 5 mps 753 mmHg 23%
    18:00 +35°C° 0 mm 5 mps 753 mmHg 29%
    19:00 +33°C° 0 mm 4 mps 753 mmHg 34%
    20:00 +30°C° 0 mm 4 mps 754 mmHg 40%
    21:00 +30°C° 0 mm 3 mps 754 mmHg 42%
    22:00 +29°C° 0 mm 3 mps 754 mmHg 43%
    23:00 +28°C° 0 mm 2 mps 754 mmHg 44%

    22 January, Monday

    Time Temperature Precipitation Wind Pressure Humidity
    00:00 +27°C° 0 mm 2 mps 754 mmHg 46%
    01:00 +27°C° 0 mm 2 mps 753 mmHg 48%
    02:00 +26°C° 0 mm 2 mps 753 mmHg 50%
    03:00 +26°C° 0 mm 2 mps 753 mmHg 52%
    04:00 +25°C° 0 mm 1 mps 753 mmHg 54%
    05:00 +25°C° 0 mm 1 mps 753 mmHg 56%
    06:00 +26°C° 0 mm 1 mps 753 mmHg 53%
    07:00 +28°C° 0 mm 2 mps 753 mmHg 49%
    08:00 +29°C° 0 mm 2 mps 754 mmHg 46%
    09:00 +31°C° 0 mm 2 mps 753 mmHg 43%
    10:00 +32°C° 0 mm 2 mps 753 mmHg 40%
    11:00 +35°C° 0 mm 3 mps 752 mmHg 37%
    12:00 +35°C° 0 mm 3 mps 752 mmHg 36%
    13:00 +36°C° 0 mm 3 mps 751 mmHg 34%
    14:00 +37°C° 0 mm 3 mps 750 mmHg 33%
    15:00 +37°C° 0 mm 3 mps 750 mmHg 34%
    16:00 +36°C° 0 mm 3 mps 750 mmHg 35%
    17:00 +36°C° 0 mm 3 mps 750 mmHg 37%
    18:00 +35°C° 0 mm 3 mps 750 mmHg 41%
    19:00 +34°C° 0 mm 3 mps 750 mmHg 44%
    20:00 +33°C° 0 mm 3 mps 750 mmHg 48%
    21:00 +31°C° 0 mm 3 mps 750 mmHg 51%
    22:00 +30°C° 0 mm 3 mps 750 mmHg 54%
    23:00 +30°C° 0 mm 3 mps 750 mmHg 57%
    Show more